Startpagina
METAR-TAF:

METAR-TAF

Vliegvelden :

Fort Collins-Loveland Municipal Airport

Fort Collins / Loveland, Colorado, Verenigde Staten

breedte: 40-27N, lengte: 105-01W, hoogte: 1529 m

Actueel weer

Dit bericht is 1 uur en het 53 minuten geleden gemaakt, om 15:56 UTC
Wind 3 kt uit het noordnoordwesten
Temperatuur 1°C
Vochtigheid 69%
Druk 1015 hPa
Zicht: 16.1 km
Onbewolkt

METAR: KFNL 161556Z AUTO 34003KT 10SM CLR 01/M04 A2996 RMK AO2 SLP152 T00061044 FZRANO PNO $

Tijdstip: 10:49 (17:49 UTC)


TAF: ontbreekt

Waarnemingen en weersverwachtingen van meer dan 4000 vliegvelden (METAR en TAF).

De beschikbare stations zijn de gele en rode punten op de kaart.

Ga met uw muis naar het station om de naam te zien.

Klik dan om waarnemingen en weersverwachtingen te zien.

kaart wijzigen: klik op de groene knoppen met een zwart kruis om in te zoomen, op de groene knop met een streepje om uit te zoomen of op de groene pijlen voor aangrenzende kaarten.


METAR-TAF: